STARLINK-4493 (53533 NORAD) Tracking and Keplerian Element Data

This shows tracking and keplerian element data for the satellite.

Feedback or suggestion? Click here.




ElementValue
Catalog53533
NameSTARLINK-4493
Epoch Orbit1426
Epoch Day324.75950699
Epoch Year2022
RAAN83.2544
Inclination53.2196
Eccentricity0.0001844
Argument of Perigee42.4535
Mean Anonmoly317.66
Mean Motion15.08844722
Decay Rate-1.037E-05
L11 53533U 22101G 22324.75950699 -.00001037 00000+0 -47025-4 0 9992
L22 53533 53.2196 83.2544 0001844 42.4535 317.6600 15.08844722 14260



Live tracking and technical data element details for STARLINK-4493 (NORAD 53533). STARLINK-4493 can be tracked NOW for your location showing map with azimuth and elevation plus other details from your city location.







IsCatalogInMostPopularTable: catalog: 53533, numindb: 3
Update: records affected: 1



GetName: 53533 STARLINK-4493

Hit Count: updated at: Thu, 08 Dec 2022 19:52:43 GMT